Point Perpendicular Observation History
Time Wind Speed Temp Pressure Rel. Hum Rain
30/10:00am WNW 5-8 kts 21.9°c 1013.3 hPa 72% 0.2mm
30/09:30am NW 7-11 kts 21.2°c 1013.1 hPa 72% 0.2mm
30/09:00am NW 7-9 kts 20.8°c 1012.9 hPa 73% 2.4mm
30/08:30am NNW 6-7 kts 20.1°c 1012.8 hPa 73% 2.4mm
30/08:00am N 7-8 kts 19.4°c 1012.4 hPa 76% 2.4mm
30/07:30am NNW 6-7 kts 19.4°c 1012.5 hPa 77% 2.2mm
30/07:00am NW 5-8 kts 19.6°c 1012.3 hPa 75% 2.2mm
30/06:30am NW 4-6 kts 19.6°c 1012.0 hPa 76% 2.2mm
30/06:00am NNW 5-7 kts 19.2°c 1011.9 hPa 79% 2.2mm
30/05:30am NNW 4-6 kts 19.6°c 1011.9 hPa 79% 2.0mm
30/05:00am ENE 2-4 kts 18.8°c 1012.0 hPa 87% 2.0mm
30/04:30am NNE 4-7 kts 18.8°c 1011.7 hPa 89% 2.0mm
30/04:00am NNW 5 kts 18.9°c 1011.9 hPa 89% 1.8mm
30/03:30am NNW 6-7 kts 19.0°c 1012.6 hPa 88% 1.8mm
30/03:00am NNW 7-9 kts 19.2°c 1013.2 hPa 87% 1.8mm
30/02:30am NW 6-7 kts 19.1°c 1014.1 hPa 89% 1.6mm
30/02:00am NNW 3-5 kts 18.8°c 1014.1 hPa 91% 1.6mm
30/01:30am NW 4-5 kts 19.6°c 1014.5 hPa 91% 1.4mm
30/01:00am NW 7-12 kts 20.0°c 1015.1 hPa 89% 1.4mm
30/12:30am N 12-17 kts 20.4°c 1014.3 hPa 87% 1.4mm
30/12:00am N 12-18 kts 20.4°c 1014.6 hPa 87% 1.4mm
Time Wind Speed Temp Pressure Rel. Hum Rain
29/11:30pm N 13-18 kts 20.5°c 1015.0 hPa 87% 1.4mm
29/11:00pm NNE 14-20 kts 20.5°c 1015.2 hPa 87% 1.4mm
29/10:30pm NNE 14-19 kts 20.5°c 1015.6 hPa 87% 1.4mm
29/10:00pm NNE 15-22 kts 20.5°c 1015.8 hPa 89% 1.4mm
29/09:30pm NNE 14-21 kts 20.7°c 1015.8 hPa 88% 1.4mm
29/09:00pm N 14-21 kts 20.7°c 1015.9 hPa 87% 1.4mm
29/08:30pm NNE 14-21 kts 20.8°c 1015.9 hPa 87% 1.4mm
29/08:00pm NNE 17-24 kts 20.6°c 1015.6 hPa 86% 1.4mm
29/07:30pm NNE 15-21 kts 20.7°c 1015.5 hPa 86% 1.4mm
29/07:00pm NNE 16-23 kts 20.8°c 1015.3 hPa 86% 1.4mm
29/06:30pm NNE 16-23 kts 21.0°c 1015.2 hPa 84% 1.4mm
29/06:00pm NNE 16-22 kts 21.2°c 1015.2 hPa 84% 1.4mm
29/05:37pm NNE 15-25 kts 21.3°c 1015.1 hPa 83% 1.4mm
29/05:30pm NNE 17-25 kts 21.3°c 1015.1 hPa 83% 1.4mm
29/05:00pm NNE 15-20 kts 21.4°c 1015.3 hPa 83% 1.4mm
29/04:30pm NNE 17-23 kts 21.5°c 1015.7 hPa 79% 1.4mm
29/04:00pm NNE 15-21 kts 22.5°c 1016.1 hPa 76% 1.4mm
29/03:30pm NNE 17-24 kts 22.7°c 1016.3 hPa 75% 1.4mm
29/03:00pm NNE 15-24 kts 23.0°c 1016.7 hPa 76% 1.4mm
29/02:30pm NNE 15-22 kts 22.1°c 1017.1 hPa 76% 1.2mm
29/02:00pm NNE 13-19 kts 23.1°c 1017.6 hPa 74% 1.2mm
29/01:30pm NNE 15-23 kts 22.7°c 1018.3 hPa 72% 1.0mm
29/01:00pm NNE 15-21 kts 23.1°c 1018.7 hPa 73% 1.0mm
29/12:30pm NNE 13-20 kts 22.2°c 1019.4 hPa 77% 0.8mm
29/12:00pm NNE 15-21 kts 21.6°c 1019.6 hPa 82% 0.8mm
29/11:30am NNE 18-28 kts 20.2°c 1020.4 hPa 88% 0.6mm
29/11:17am NNE 17-27 kts 19.7°c 1020.6 hPa 90% 0.6mm
29/11:00am NNE 16-22 kts 19.5°c 1020.7 hPa 93% 0.4mm
29/10:30am NNE 16-23 kts 19.7°c 1020.8 hPa 95% 0.4mm
29/10:00am NNE 14-20 kts 18.4°c 1021.0 hPa 95% 0.2mm
29/09:30am NNE 13-21 kts 18.6°c 1020.8 hPa 95% 0.0mm
29/09:00am NNE 14-20 kts 17.9°c 1020.9 hPa 94% 3.8mm
29/08:30am NNE 11-16 kts 18.7°c 1020.7 hPa 94% 3.6mm
29/08:00am NNE 9-13 kts 18.7°c 1020.4 hPa 94% 3.6mm
29/07:30am NNE 10-16 kts 18.5°c 1020.1 hPa 94% 3.4mm
29/07:00am N 12-16 kts 18.2°c 1019.8 hPa 94% 3.4mm
29/06:30am N 8-12 kts 18.0°c 1019.7 hPa 94% 3.2mm
29/06:00am N 9-14 kts 17.9°c 1019.7 hPa 95% 3.0mm
29/05:30am N 10-14 kts 17.8°c 1019.7 hPa 95% 3.0mm
29/05:00am N 6-7 kts 17.6°c 1019.7 hPa 95% 2.8mm
29/04:30am N 5-8 kts 17.4°c 1019.9 hPa 95% 2.6mm
29/04:00am NNE 6-8 kts 17.4°c 1020.0 hPa 95% 2.6mm
29/03:30am N 7-10 kts 17.5°c 1020.2 hPa 95% 2.4mm
29/03:00am NNE 5-7 kts 17.4°c 1020.6 hPa 95% 2.2mm
29/02:30am NNE 4-5 kts 17.3°c 1021.2 hPa 95% 2.0mm
29/02:00am N 4-6 kts 17.4°c 1021.4 hPa 95% 1.8mm
29/01:30am NNW 2-3 kts 17.5°c 1021.6 hPa 94% 1.6mm
29/01:00am NNW 4-7 kts 17.5°c 1021.9 hPa 94% 1.2mm
29/12:30am NNW 4-6 kts 17.6°c 1022.1 hPa 93% 1.0mm
29/12:00am N 7-12 kts 17.8°c 1022.5 hPa 92% 0.6mm
Time Wind Speed Temp Pressure Rel. Hum Rain
28/11:30pm E 4-9 kts 17.6°c 1022.7 hPa 90% 0.2mm
28/11:00pm N 4-7 kts 17.4°c 1023.1 hPa 86% 0.0mm
28/10:30pm N 5-6 kts 18.4°c 1023.3 hPa 79% 0.0mm
28/10:00pm NE 6-10 kts 19.2°c 1023.4 hPa 75% 0.0mm
28/09:30pm NNE 11-16 kts 19.2°c 1023.4 hPa 75% 0.0mm
28/09:00pm NNE 12-20 kts 19.3°c 1023.4 hPa 81% 0.0mm
28/08:30pm NNE 10-18 kts 20.1°c 1023.2 hPa 71% 0.0mm
28/08:00pm NNE 9-14 kts 20.2°c 1022.8 hPa 66% 0.0mm
28/07:30pm NE 9-13 kts 20.6°c 1022.5 hPa 62% 0.0mm
28/07:00pm NE 9-15 kts 20.7°c 1022.4 hPa 58% 0.0mm
28/06:30pm NE 10-16 kts 20.8°c 1022.4 hPa 59% 0.0mm
28/06:00pm NE 9-14 kts 21.2°c 1022.4 hPa 62% 0.0mm
28/05:30pm NE 11-16 kts 21.5°c 1022.4 hPa 58% 0.0mm
28/05:00pm NE 11-14 kts 22.4°c 1022.5 hPa 57% 0.0mm
28/04:30pm NE 11-17 kts 21.8°c 1022.4 hPa 62% 0.0mm
28/04:00pm NE 10-14 kts 21.7°c 1022.6 hPa 65% 0.0mm
28/03:30pm NE 9-14 kts 22.1°c 1022.9 hPa 65% 0.0mm
28/03:00pm ENE 7-12 kts 22.3°c 1023.3 hPa 67% 0.0mm
28/02:30pm ENE 6-11 kts 21.9°c 1023.5 hPa 70% 0.0mm
28/02:00pm NE 8-14 kts 21.2°c 1023.8 hPa 73% 0.0mm
28/01:30pm ENE 6-12 kts 20.1°c 1024.2 hPa 75% 0.0mm
28/01:00pm SE 5-9 kts 20.4°c 1024.9 hPa 75% 0.0mm
28/12:30pm S 3-5 kts 20.1°c 1025.2 hPa 76% 0.0mm
28/12:00pm SSE 5-7 kts 20.9°c 1025.4 hPa 74% 0.0mm
28/11:30am S 4-8 kts 20.5°c 1025.6 hPa 73% 0.0mm
28/11:00am S 4-7 kts 20.5°c 1025.7 hPa 74% 0.0mm
28/10:30am SW 3-6 kts 19.6°c 1026.0 hPa 73% 0.0mm
28/10:00am WSW 3-6 kts 19.1°c 1026.0 hPa 73% 0.0mm
28/09:30am WSW 2-5 kts 18.9°c 1026.0 hPa 80% 0.0mm
28/09:00am WNW 3-5 kts 17.8°c 1025.9 hPa 87% 0.2mm
28/08:30am NW 3-4 kts 17.2°c 1025.8 hPa 88% 0.2mm
28/08:00am WNW 2-3 kts 16.7°c 1025.5 hPa 89% 0.2mm
28/07:30am WNW 3-5 kts 15.8°c 1025.3 hPa 89% 0.2mm
28/07:00am WNW 2-3 kts 15.7°c 1025.1 hPa 89% 0.2mm
28/06:30am NW 3-4 kts 15.5°c 1025.1 hPa 89% 0.2mm
28/06:00am NW 2-5 kts 15.8°c 1025.0 hPa 87% 0.2mm
28/05:30am N 3-4 kts 16.8°c 1024.9 hPa 85% 0.2mm
28/05:00am WNW 1-3 kts 16.9°c 1024.7 hPa 84% 0.2mm
28/04:30am WSW 1-2 kts 17.1°c 1024.7 hPa 83% 0.2mm
28/04:00am WSW 1-3 kts 17.2°c 1024.7 hPa 83% 0.2mm
28/03:30am W 1-2 kts 17.2°c 1024.9 hPa 83% 0.2mm
28/03:00am WSW 2-3 kts 17.1°c 1025.2 hPa 82% 0.2mm
28/02:30am WSW 2 kts 17.0°c 1025.4 hPa 83% 0.2mm
28/02:00am W 1-2 kts 16.9°c 1025.6 hPa 85% 0.2mm
28/01:30am CALM 0-2 kts 16.4°c 1025.8 hPa 86% 0.2mm
28/01:00am CALM 0-1 kts 16.0°c 1025.9 hPa 86% 0.2mm
28/12:30am WNW 1-3 kts 16.5°c 1026.2 hPa 86% 0.2mm
28/12:00am NW 3-4 kts 16.6°c 1026.3 hPa 85% 0.2mm